Big Bear City, CA

10:31 AM PDT on September 23, 2019 (GMT -0700)
Big Bear City

Weather History for KL35 - May, 2019

Change the Weather History Date:

Monday, May 13, 2019

  Actual Average (WUND) Record (WUND)
Temperature  
Mean Temperature 48 °F -  
Max Temperature 64 °F - - (-1)
Min Temperature 33 °F - - (-1)
Degree Days  
Heating Degree Days 16    
Moisture  
Dew Point 31 °F    
Average Humidity 52    
Maximum Humidity 93    
Minimum Humidity 26    
Precipitation  
Precipitation 0.00 in - - ()
Sea Level Pressure  
Sea Level Pressure 30.17 in    
Wind  
Wind Speed 2 mph (WSW)    
Max Wind Speed 15 mph    
Max Gust Speed 25 mph    
Visibility 10 miles    
Events      
Averages and records for this station are not official NWS values.
T = Trace of Precipitation, MM = Missing Value Source: NWS Daily Summary

Daily Weather History Graph

Daily Weather History Graph

Search for Another Location

Airport or City:

Astronomy

May. 13, 2019 Rise Set
Actual Time 5:47 AM PDT 7:40 PM PDT
Civil Twilight 5:19 AM PDT 8:08 PM PDT
Nautical Twilight 4:46 AM PDT 8:42 PM PDT
Astronomical Twilight 4:10 AM PDT 9:17 PM PDT
Moon 2:17 PM PDT (5/13) 2:47 AM PDT (5/13)
Length of Visible Light 14h 49m
Length of Day
13h 53m
Waxing Gibbous, 70% of the Moon is Illuminated
May 13
Waxing Gibbous
May 18
Full
May 26
Last Quarter
Jun 3
New
Jun 9
First Quarter

Hourly Weather History & Observations

Time (PDT) Temp. Windchill Dew Point Humidity Pressure Visibility Wind Dir Wind Speed Gust Speed Precip Events Conditions
12:15 AM 41.0 °F - 33.8 °F 76% 30.17 in 10.0 mi Calm Calm - N/A   Scattered Clouds
12:35 AM 41.0 °F - 35.6 °F 81% 30.17 in 10.0 mi Calm Calm - N/A   Scattered Clouds
12:55 AM 39.2 °F - 33.8 °F 81% 30.17 in 10.0 mi Calm Calm - N/A   Scattered Clouds
1:15 AM 37.4 °F - 33.8 °F 87% 30.16 in 10.0 mi Calm Calm - N/A   Clear
1:35 AM 37.4 °F - 33.8 °F 87% 30.16 in 10.0 mi Calm Calm - N/A   Clear
1:55 AM 37.4 °F - 33.8 °F 87% 30.16 in 10.0 mi Calm Calm - N/A   Scattered Clouds
2:15 AM 37.4 °F - 33.8 °F 87% 30.16 in 10.0 mi Calm Calm - N/A   Scattered Clouds
2:35 AM 37.4 °F - 33.8 °F 87% 30.16 in 10.0 mi Calm Calm - N/A   Mostly Cloudy
2:55 AM 37.4 °F - 32.0 °F 81% 30.16 in 10.0 mi Calm Calm - N/A   Scattered Clouds
3:15 AM 35.6 °F - 32.0 °F 87% 30.16 in 10.0 mi Calm Calm - N/A   Clear
3:35 AM 35.6 °F - 32.0 °F 87% 30.16 in 10.0 mi Calm Calm - N/A   Clear
3:55 AM 35.6 °F - 32.0 °F 87% 30.16 in 10.0 mi Calm Calm - N/A   Clear
4:15 AM 35.6 °F - 32.0 °F 87% 30.16 in 10.0 mi Calm Calm - N/A   Clear
4:35 AM 33.8 °F - 32.0 °F 93% 30.16 in 10.0 mi Calm Calm - N/A   Clear
4:55 AM 33.8 °F - 32.0 °F 93% 30.16 in 10.0 mi Calm Calm - N/A   Clear
5:15 AM 33.8 °F - 32.0 °F 93% 30.16 in 10.0 mi Calm Calm - N/A   Clear
5:35 AM 33.8 °F - 32.0 °F 93% 30.16 in 10.0 mi Calm Calm - N/A   Clear
5:55 AM 33.8 °F - 32.0 °F 93% 30.17 in 10.0 mi Calm Calm - N/A   Clear
6:15 AM 33.8 °F - 32.0 °F 93% 30.17 in 10.0 mi Calm Calm - N/A   Clear
6:35 AM 35.6 °F - 32.0 °F 87% 30.18 in 10.0 mi Calm Calm - N/A   Clear
6:55 AM 37.4 °F - 32.0 °F 81% 30.18 in 10.0 mi Calm Calm - N/A   Clear
7:15 AM 41.0 °F - 35.6 °F 81% 30.18 in 10.0 mi Calm Calm - N/A   Clear
7:35 AM 44.6 °F - 35.6 °F 71% 30.19 in 10.0 mi Calm Calm - N/A   Clear
7:55 AM 50.0 °F - 37.4 °F 62% 30.19 in 10.0 mi Calm Calm - N/A   Clear
8:15 AM 53.6 °F - 32.0 °F 44% 30.19 in 10.0 mi Calm Calm - N/A   Clear
8:35 AM 55.4 °F - 33.8 °F 44% 30.19 in 10.0 mi Calm Calm - N/A   Clear
8:55 AM 59.0 °F - 30.2 °F 34% 30.19 in 10.0 mi Calm Calm - N/A   Clear
9:15 AM 59.0 °F - 30.2 °F 34% 30.19 in 10.0 mi West 4.6 mph - N/A   Clear
9:35 AM 59.0 °F - 30.2 °F 34% 30.18 in 10.0 mi West 5.8 mph - N/A   Clear
9:55 AM 60.8 °F - 30.2 °F 31% 30.18 in 10.0 mi West 9.2 mph - N/A   Clear
10:15 AM 60.8 °F - 30.2 °F 31% 30.18 in 10.0 mi SSW 5.8 mph - N/A   Scattered Clouds
10:35 AM 59.0 °F - 28.4 °F 31% 30.18 in 10.0 mi WSW 3.5 mph - N/A   Scattered Clouds
10:55 AM 60.8 °F - 28.4 °F 29% 30.18 in 10.0 mi Calm Calm - N/A   Mostly Cloudy
11:15 AM 62.6 °F - 28.4 °F 27% 30.19 in 10.0 mi WSW 6.9 mph - N/A   Mostly Cloudy
11:35 AM 62.6 °F - 28.4 °F 27% 30.19 in 10.0 mi Calm Calm - N/A   Overcast
11:55 AM 60.8 °F - 28.4 °F 29% 30.19 in 10.0 mi SW 6.9 mph - N/A   Overcast
12:15 PM 60.8 °F - 28.4 °F 29% 30.18 in 10.0 mi SW 5.8 mph - N/A   Overcast
12:35 PM 60.8 °F - 30.2 °F 31% 30.18 in 10.0 mi Calm Calm - N/A   Overcast
12:55 PM 60.8 °F - 30.2 °F 31% 30.18 in 10.0 mi South 6.9 mph - N/A   Overcast
1:15 PM 60.8 °F - 30.2 °F 31% 30.18 in 10.0 mi SSW 10.4 mph 17.3 mph N/A   Overcast
1:35 PM 62.6 °F - 30.2 °F 30% 30.18 in 10.0 mi West 13.8 mph 20.7 mph N/A   Overcast
1:55 PM 62.6 °F - 28.4 °F 27% 30.18 in 10.0 mi WSW 9.2 mph 18.4 mph N/A   Overcast
2:15 PM 60.8 °F - 28.4 °F 29% 30.18 in 10.0 mi SW 6.9 mph 18.4 mph N/A   Overcast
2:35 PM 64.4 °F - 28.4 °F 26% 30.17 in 10.0 mi WSW 5.8 mph 18.4 mph N/A   Overcast
2:55 PM 62.6 °F - 28.4 °F 27% 30.17 in 10.0 mi WSW 11.5 mph 25.3 mph N/A   Overcast
3:15 PM 62.6 °F - 28.4 °F 27% 30.17 in 10.0 mi SW 9.2 mph 17.3 mph N/A   Mostly Cloudy
3:35 PM 62.6 °F - 28.4 °F 27% 30.16 in 10.0 mi SW 9.2 mph 17.3 mph N/A   Mostly Cloudy
3:55 PM 62.6 °F - 28.4 °F 27% 30.16 in 10.0 mi WSW 9.2 mph - N/A   Scattered Clouds
4:15 PM 62.6 °F - 28.4 °F 27% 30.16 in 10.0 mi WSW 9.2 mph 18.4 mph N/A   Clear
4:35 PM 62.6 °F - 26.6 °F 26% 30.16 in 10.0 mi SW 11.5 mph - N/A   Clear
4:55 PM 60.8 °F - 26.6 °F 27% 30.16 in 10.0 mi West 8.1 mph 16.1 mph N/A   Clear
5:15 PM 60.8 °F - 26.6 °F 27% 30.16 in 10.0 mi SW 9.2 mph 18.4 mph N/A   Clear
5:35 PM 60.8 °F - 28.4 °F 29% 30.16 in 10.0 mi West 15.0 mph 18.4 mph N/A   Clear
5:55 PM 60.8 °F - 26.6 °F 27% 30.16 in 10.0 mi WSW 10.4 mph 16.1 mph N/A   Clear
6:15 PM 59.0 °F - 26.6 °F 29% 30.16 in 10.0 mi SW 8.1 mph - N/A   Clear
6:35 PM 59.0 °F - 28.4 °F 31% 30.16 in 10.0 mi WSW 6.9 mph - N/A   Clear
6:55 PM 57.2 °F - 28.4 °F 33% 30.16 in 10.0 mi SW 5.8 mph - N/A   Clear
7:15 PM 55.4 °F - 28.4 °F 36% 30.16 in 10.0 mi SW 4.6 mph - N/A   Clear
7:35 PM 55.4 °F - 28.4 °F 36% 30.17 in 10.0 mi WSW 3.5 mph - N/A   Clear
7:55 PM 53.6 °F - 28.4 °F 38% 30.17 in 10.0 mi WSW 4.6 mph - N/A   Clear
8:15 PM 53.6 °F - 30.2 °F 41% 30.17 in 10.0 mi Calm Calm - N/A   Clear
8:35 PM 51.8 °F - 32.0 °F 47% 30.18 in 10.0 mi West 4.6 mph - N/A   Clear
8:55 PM 51.8 °F - 32.0 °F 47% 30.18 in 10.0 mi Calm Calm - N/A   Clear
9:15 PM 50.0 °F - 32.0 °F 50% 30.18 in 10.0 mi West 4.6 mph - N/A   Clear
9:35 PM 50.0 °F - 30.2 °F 47% 30.19 in 10.0 mi WSW 3.5 mph - N/A   Clear
9:55 PM 51.8 °F - 30.2 °F 44% 30.19 in 10.0 mi WSW 5.8 mph - N/A   Clear
10:15 PM 50.0 °F - 30.2 °F 47% 30.19 in 10.0 mi West 5.8 mph - N/A   Clear
10:35 PM 46.4 °F 45.2 °F 32.0 °F 57% 30.20 in 10.0 mi WSW 3.5 mph - N/A   Clear
10:55 PM 44.6 °F - 32.0 °F 61% 30.20 in 10.0 mi Calm Calm - N/A   Clear
11:15 PM 44.6 °F - 32.0 °F 61% 30.20 in 10.0 mi Calm Calm - N/A   Clear
11:35 PM 42.8 °F - 32.0 °F 66% 30.19 in 10.0 mi Calm Calm - N/A   Clear
11:55 PM 42.8 °F - 32.0 °F 66% 30.19 in 10.0 mi Calm Calm - N/A   Clear